Change the Weather History Date:

Sunday, September 2, 2012

  Actual Average Record
Temperature  
Mean Temperature 46 °F 48 °F  
Max Temperature 52 °F 54 °F 67 °F (1991)
Min Temperature 39 °F 42 °F 25 °F (1983)
Degree Days  
Heating Degree Days 19 17  
Month to date heating degree days 41 34  
Since 1 July heating degree days 946 898  
Cooling Degree Days 0    
Month to date cooling degree days 0  
Year to date cooling degree days 0  
Moisture  
Dew Point 41 °F    
Average Humidity 0    
Maximum Humidity 0    
Minimum Humidity 0    
Precipitation  
Precipitation 0.18 in 0.09 in 0.77 in (1999)
Month to date precipitation 0.36 0.18  
Year to date precipitation 15.04 10.63  
Snow  
Snow 0.00 in 0.00 in T in (1986)
Month to date snowfall 0.0 0.0  
Since 1 July snowfall 0.0 0.0  
Since 1 September snowfall 0.0 0.0  
Snow Depth 0.00 in    
Sea Level Pressure  
Sea Level Pressure 29.51 in    
Wind  
Wind Speed 10 mph (NE)    
Max Wind Speed 18 mph    
Max Gust Speed 24 mph    
Visibility 10 miles    
Events Rain    
T = Trace of Precipitation, MM = Missing Value Source: NWS Daily Summary

Daily Weather History Graph

Daily Weather History Graph

Search for Another Location

Airport or City:

Trip Planner

Search our weather history database for the weather conditions in past years. The results will help you decide how hot, cold, wet, or windy it might be!

Date:

Astronomy

Sep. 02, 2012 Rise Set
Actual Time 7:48 AM AKDT 10:12 PM AKDT
Civil Twilight 6:54 AM AKDT 11:05 PM AKDT
Nautical Twilight 5:40 AM AKDT 12:18 AM AKDT
Astronomical Twilight 3:33 AM AKDT 2:34 AM AKDT
Moon 9:41 PM AKDT (9/2) 11:26 AM AKDT (9/2)
Length of Visible Light 16h 10m
Length of Day
14h 24m
Waning Gibbous, 95% of the Moon is Illuminated
Sep 2
Waning Gibbous
Sep 8
Last Quarter
Sep 15
New
Sep 22
First Quarter
Sep 29
Full

Hourly Weather History & Observations

Time (AKDT) Temp. Windchill Dew Point Humidity Pressure Visibility Wind Dir Wind Speed Gust Speed Precip Events Conditions
12:53 AM 42.1 °F 38.4 °F 39.9 °F 92% 29.60 in 10.0 mi ENE 5.8 mph - 0.00 in Rain Light Rain
1:53 AM 42.1 °F 38.4 °F 41.0 °F 96% 29.59 in 10.0 mi ENE 5.8 mph - 0.02 in Rain Light Rain
2:20 AM 42.8 °F 38.6 °F 41.0 °F 93% 29.59 in 10.0 mi ENE 6.9 mph - 0.01 in Rain Light Rain
2:53 AM 42.1 °F 37.7 °F 41.0 °F 96% 29.60 in 10.0 mi ENE 6.9 mph - 0.02 in Rain Light Rain
3:34 AM 42.8 °F 38.0 °F 39.2 °F 87% 29.59 in 10.0 mi ENE 8.1 mph - 0.01 in Rain Light Rain
3:53 AM 42.1 °F 37.7 °F 41.0 °F 96% 29.59 in 8.0 mi ENE 6.9 mph - 0.02 in Rain Light Rain
4:27 AM 42.8 °F 38.6 °F 41.0 °F 93% 29.59 in 10.0 mi ENE 6.9 mph - 0.03 in Rain Light Rain
4:53 AM 42.1 °F 37.7 °F 39.9 °F 92% 29.59 in 10.0 mi ENE 6.9 mph - 0.03 in Rain Light Rain
5:53 AM 41.0 °F 36.4 °F 39.9 °F 96% 29.59 in 10.0 mi NE 6.9 mph - 0.01 in   Scattered Clouds
6:53 AM 42.1 °F 40.2 °F 39.9 °F 92% 29.58 in 10.0 mi NE 3.5 mph - 0.00 in Rain Light Rain
7:11 AM 42.8 °F 40.1 °F 39.2 °F 87% 29.57 in 10.0 mi NNE 4.6 mph - N/A   Overcast
7:26 AM 41.0 °F - 39.2 °F 93% 29.58 in 10.0 mi Calm Calm - N/A   Mostly Cloudy
7:53 AM 39.9 °F 35.8 °F 37.9 °F 93% 29.56 in 10.0 mi North 5.8 mph - N/A   Partly Cloudy
8:53 AM 41.0 °F 35.2 °F 37.9 °F 89% 29.55 in 10.0 mi North 9.2 mph - N/A   Mostly Cloudy
9:53 AM 44.1 °F 40.8 °F 39.0 °F 82% 29.55 in 10.0 mi NNE 5.8 mph - N/A   Mostly Cloudy
10:53 AM 46.4 °F 41.5 °F 39.2 °F 76% 29.55 in 10.0 mi NNE 10.4 mph - N/A   Mostly Cloudy
11:53 AM 46.9 °F - 39.9 °F 77% 29.54 in 10.0 mi NNE 11.5 mph - N/A   Mostly Cloudy
12:53 PM 48.9 °F - 41.0 °F 74% 29.53 in 10.0 mi NNE 9.2 mph - N/A   Mostly Cloudy
1:53 PM 50.0 °F - 39.9 °F 68% 29.51 in 10.0 mi NE 9.2 mph - N/A   Mostly Cloudy
2:53 PM 50.0 °F - 39.9 °F 68% 29.50 in 10.0 mi ENE 10.4 mph - N/A   Mostly Cloudy
3:53 PM 50.0 °F - 42.1 °F 74% 29.48 in 10.0 mi NNE 15.0 mph 20.7 mph N/A   Mostly Cloudy
4:53 PM 51.1 °F - 42.1 °F 71% 29.45 in 10.0 mi NE 16.1 mph - N/A   Mostly Cloudy
5:53 PM 52.0 °F - 42.1 °F 69% 29.44 in 10.0 mi NE 11.5 mph 20.7 mph 0.01 in   Overcast
6:53 PM 51.1 °F - 41.0 °F 68% 29.42 in 10.0 mi NE 16.1 mph - N/A   Overcast
7:53 PM 48.0 °F - 43.0 °F 83% 29.41 in 10.0 mi ENE 11.5 mph - 0.00 in Rain Light Rain
8:53 PM 46.9 °F - 44.1 °F 90% 29.39 in 10.0 mi NE 10.4 mph - 0.00 in Rain Light Rain
9:53 PM 46.9 °F - 44.1 °F 90% 29.37 in 10.0 mi NNE 10.4 mph - 0.00 in Rain Light Rain
10:53 PM 46.0 °F 41.4 °F 42.1 °F 86% 29.34 in 10.0 mi North 9.2 mph - 0.02 in Rain Light Rain
11:53 PM 46.0 °F 41.0 °F 43.0 °F 89% 29.32 in 10.0 mi NNE 10.4 mph - 0.01 in Rain Light Rain